| time (UTC) | temp F | wind direction | speed MPH | gust MPH | rain 1hr in | rain 24hr in | rain mn in | humidity % | barometer mb |
| 20260506191546 | 57 | 286 | 4.0 | 17.0 | 0.05 | 0.05 | 0.05 | 90 | 1008.4 |
| 20260506190007 | 57 | 269 | 5.0 | 13.0 | 0.05 | 0.05 | 0.05 | 90 | 1008.4 |
| 20260506184536 | 57 | 234 | 2.0 | 13.0 | 0.03 | 0.03 | 0.03 | 88 | 1008.7 |
| 20260506183042 | 58 | 153 | 4.0 | 11.0 | 0.01 | 0.01 | 0.01 | 86 | 1008.7 |
| 20260506181548 | 59 | 243 | 3.0 | 9.0 | 0.00 | 0.00 | 0.00 | 85 | 1009.1 |
| 20260506174601 | 60 | 245 | 4.0 | 11.0 | 0.00 | 0.00 | 0.00 | 82 | 1009.4 |
| 20260506173108 | 60 | 243 | 8.0 | 17.0 | 0.00 | 0.00 | 0.00 | 81 | 1009.8 |
| 20260506171529 | 61 | 262 | 4.0 | 18.0 | 0.00 | 0.00 | 0.00 | 81 | 1009.7 |
| 20260506170055 | 60 | 192 | 7.0 | 16.0 | 0.00 | 0.00 | 0.00 | 81 | 1010.2 |
| 20260506164540 | 60 | 282 | 7.0 | 14.0 | 0.00 | 0.00 | 0.00 | 81 | 1010.2 |
| 20260506163104 | 61 | 344 | 4.0 | 14.0 | 0.00 | 0.00 | 0.00 | 80 | 1010.3 |
| 20260506161507 | 62 | 261 | 7.0 | 22.0 | 0.00 | 0.00 | 0.00 | 79 | 1010.6 |
| 20260506160017 | 62 | 261 | 4.0 | 19.0 | 0.00 | 0.00 | 0.00 | 79 | 1010.9 |
| 20260506154544 | 62 | 231 | 4.0 | 16.0 | 0.00 | 0.00 | 0.00 | 79 | 1010.8 |
| 20260506153103 | 62 | 187 | 8.0 | 16.0 | 0.00 | 0.00 | 0.00 | 78 | 1010.9 |
| 20260506151558 | 63 | 198 | 5.0 | 16.0 | 0.00 | 0.00 | 0.00 | 78 | 1010.8 |
| 20260506150022 | 64 | 93 | 8.0 | 16.0 | 0.00 | 0.00 | 0.00 | 75 | 1010.8 |
| 20260506144543 | 63 | 261 | 7.0 | 17.0 | 0.00 | 0.00 | 0.00 | 77 | 1010.9 |
| 20260506143047 | 63 | 243 | 6.0 | 14.0 | 0.00 | 0.00 | 0.00 | 78 | 1011.2 |
| 20260506141559 | 62 | 185 | 4.0 | 15.0 | 0.00 | 0.00 | 0.00 | 79 | 1011.1 |
| 20260506140022 | 61 | 269 | 5.0 | 14.0 | 0.00 | 0.00 | 0.00 | 81 | 1010.9 |
| 20260506134547 | 61 | 174 | 5.0 | 13.0 | 0.00 | 0.00 | 0.00 | 81 | 1010.9 |
| 20260506133103 | 62 | 172 | 5.0 | 14.0 | 0.00 | 0.00 | 0.00 | 79 | 1010.7 |
| 20260506131600 | 62 | 245 | 4.0 | 11.0 | 0.00 | 0.00 | 0.00 | 80 | 1011.1 |
| 20260506124503 | 61 | 238 | 4.0 | 19.0 | 0.00 | 0.00 | 0.00 | 81 | 1011.1 |
| 20260506123033 | 60 | 257 | 3.0 | 17.0 | 0.00 | 0.00 | 0.00 | 82 | 1011.2 |
| 20260506121547 | 60 | 244 | 4.0 | 14.0 | 0.00 | 0.00 | 0.00 | 83 | 1011.3 |
| 20260506120053 | 59 | 259 | 5.0 | 11.0 | 0.00 | 0.00 | 0.00 | 84 | 1011.2 |
| 20260506114552 | 59 | 248 | 5.0 | 14.0 | 0.00 | 0.00 | 0.00 | 84 | 1011.3 |
| 20260506113105 | 59 | 260 | 3.0 | 11.0 | 0.00 | 0.00 | 0.00 | 84 | 1011.4 |
| 20260506111512 | 58 | 259 | 3.0 | 8.0 | 0.00 | 0.00 | 0.00 | 85 | 1011.3 |
| 20260506110041 | 58 | 173 | 2.0 | 11.0 | 0.00 | 0.00 | 0.00 | 87 | 1011.5 |
| 20260506104556 | 57 | 298 | 1.0 | 11.0 | 0.00 | 0.00 | 0.00 | 87 | 1011.2 |
| 20260506103056 | 57 | 177 | 5.0 | 17.0 | 0.00 | 0.00 | 0.00 | 87 | 1011.3 |
| 20260506101503 | 57 | 243 | 3.0 | 15.0 | 0.00 | 0.00 | 0.00 | 86 | 1011.1 |
| 20260506100031 | 58 | 249 | 3.0 | 11.0 | 0.00 | 0.00 | 0.00 | 86 | 1011.1 |
| 20260506094545 | 58 | 203 | 5.0 | 16.0 | 0.00 | 0.00 | 0.00 | 87 | 1011.1 |
| 20260506093100 | 58 | 183 | 5.0 | 13.0 | 0.00 | 0.00 | 0.00 | 87 | 1011.1 |
| 20260506091523 | 58 | 199 | 4.0 | 10.0 | 0.00 | 0.00 | 0.00 | 86 | 1011.1 |
| 20260506090046 | 58 | 264 | 4.0 | 12.0 | 0.00 | 0.00 | 0.00 | 86 | 1011.3 |
| 20260506084604 | 58 | 238 | 4.0 | 14.0 | 0.00 | 0.00 | 0.00 | 85 | 1011.4 |
| 20260506083047 | 58 | 320 | 4.0 | 12.0 | 0.00 | 0.00 | 0.00 | 85 | 1011.4 |
| 20260506081608 | 58 | 327 | 2.0 | 10.0 | 0.00 | 0.00 | 0.00 | 85 | 1011.5 |
| 20260506073040 | 58 | 276 | 3.0 | 12.0 | 0.00 | 0.00 | 0.00 | 84 | 1011.5 |
| 20260506071555 | 58 | 238 | 1.0 | 14.0 | 0.00 | 0.00 | 0.00 | 84 | 1011.5 |
| 20260506061548 | 58 | 275 | 1.0 | 7.0 | 0.00 | 0.00 | 0.00 | 83 | 1011.8 |
| 20260506044546 | 59 | 265 | 2.0 | 9.0 | 0.00 | 0.00 | 0.00 | 81 | 1012.2 |
| 20260506043100 | 59 | 257 | 5.0 | 13.0 | 0.00 | 0.00 | 0.00 | 81 | 1012.2 |
| 20260506041515 | 59 | 294 | 3.0 | 10.0 | 0.00 | 0.00 | 0.00 | 79 | 1012.3 |
| 20260506040026 | 60 | 250 | 3.0 | 11.0 | 0.00 | 0.00 | 0.00 | 78 | 1012.2 |
| 20260506034543 | 60 | 258 | 6.0 | 13.0 | 0.00 | 0.00 | 0.00 | 78 | 1012.1 |
| 20260506033043 | 60 | 196 | 6.0 | 15.0 | 0.00 | 0.00 | 0.00 | 77 | 1012.2 |
| 20260506031501 | 60 | 259 | 5.0 | 14.0 | 0.00 | 0.00 | 0.00 | 77 | 1012.0 |
| 20260506030031 | 60 | 247 | 3.0 | 16.0 | 0.00 | 0.00 | 0.00 | 76 | 1012.1 |
| 20260506024557 | 60 | 273 | 5.0 | 14.0 | 0.00 | 0.00 | 0.00 | 76 | 1012.0 |
| 20260506023024 | 61 | 235 | 4.0 | 15.0 | 0.00 | 0.00 | 0.00 | 75 | 1012.0 |
| 20260506021557 | 61 | 192 | 5.0 | 11.0 | 0.00 | 0.00 | 0.00 | 75 | 1011.9 |
| 20260506020105 | 61 | 236 | 3.0 | 9.0 | 0.00 | 0.00 | 0.00 | 75 | 1011.8 |
| 20260506014535 | 60 | 260 | 5.0 | 11.0 | 0.00 | 0.00 | 0.00 | 75 | 1011.7 |
| 20260506013004 | 60 | 215 | 3.0 | 13.0 | 0.00 | 0.00 | 0.00 | 76 | 1011.5 |
| 20260506011538 | 60 | 250 | 6.0 | 15.0 | 0.00 | 0.00 | 0.00 | 76 | 1011.3 |
| 20260506010053 | 59 | 244 | 4.0 | 11.0 | 0.00 | 0.00 | 0.00 | 76 | 1011.3 |
| 20260506004552 | 60 | 275 | 6.0 | 15.0 | 0.00 | 0.00 | 0.00 | 76 | 1011.0 |
| 20260506003022 | 59 | 259 | 5.0 | 12.0 | 0.00 | 0.00 | 0.00 | 77 | 1010.5 |
| 20260506001543 | 59 | 273 | 3.0 | 11.0 | 0.00 | 0.00 | 0.00 | 77 | 1010.4 |
| 20260506000009 | 60 | 238 | 4.0 | 13.0 | 0.00 | 0.00 | 0.00 | 75 | 1010.2 |
| 20260505234539 | 60 | 218 | 5.0 | 19.0 | 0.00 | 0.00 | 0.00 | 75 | 1009.8 |
| 20260505233057 | 60 | 237 | 4.0 | 11.0 | 0.00 | 0.00 | 0.00 | 76 | 1009.7 |
| 20260505231533 | 60 | 166 | 4.0 | 10.0 | 0.00 | 0.00 | 0.00 | 75 | 1010.3 |
| 20260505230051 | 60 | 225 | 5.0 | 16.0 | 0.00 | 0.00 | 0.00 | 75 | 1010.3 |
| 20260505224605 | 61 | 241 | 4.0 | 13.0 | 0.00 | 0.00 | 0.00 | 73 | 1010.0 |
| 20260505223037 | 62 | 227 | 4.0 | 16.0 | 0.00 | 0.00 | 0.00 | 73 | 1009.9 |
| 20260505221600 | 62 | 176 | 4.0 | 13.0 | 0.00 | 0.00 | 0.00 | 72 | 1009.8 |
| 20260505220058 | 62 | 250 | 8.0 | 15.0 | 0.00 | 0.00 | 0.00 | 72 | 1009.6 |
| 20260505214534 | 62 | 210 | 6.0 | 13.0 | 0.00 | 0.00 | 0.00 | 71 | 1009.9 |
| 20260505213056 | 63 | 235 | 4.0 | 19.0 | 0.00 | 0.00 | 0.00 | 71 | 1009.9 |
| 20260505211524 | 64 | 227 | 5.0 | 14.0 | 0.00 | 0.00 | 0.00 | 70 | 1009.6 |
| 20260505210043 | 64 | 188 | 3.0 | 10.0 | 0.00 | 0.00 | 0.00 | 70 | 1009.5 |
| 20260505204555 | 65 | 193 | 3.0 | 14.0 | 0.00 | 0.00 | 0.00 | 69 | 1009.5 |
| 20260505203006 | 66 | 192 | 4.0 | 18.0 | 0.00 | 0.00 | 0.00 | 67 | 1009.3 |
| 20260505201540 | 65 | 254 | 3.0 | 10.0 | 0.00 | 0.00 | 0.00 | 68 | 1009.4 |
| 20260505200105 | 65 | 219 | 4.0 | 11.0 | 0.00 | 0.00 | 0.00 | 70 | 1009.7 |
| 20260505194524 | 65 | 178 | 2.0 | 10.0 | 0.00 | 0.00 | 0.00 | 71 | 1009.9 |
| 20260505193041 | 64 | 248 | 3.0 | 12.0 | 0.00 | 0.00 | 0.00 | 72 | 1009.9 |